129  
ASUS43 KMKX 281120  
RWRWI  
 
WISCONSIN REGIONAL WEATHER ROUNDUP  
NATIONAL WEATHER SERVICE MILWAUKEE/SULLIVAN WI  
500 AM CST MON NOV 28 2022  
 
NOTE: "FAIR" INDICATES FEW OR NO CLOUDS BELOW 12,000 FEET WITH NO  
SIGNIFICANT WEATHER AND/OR S TO VISIBILITY
.  
 
WIZ001-002-006>008-014>016-023>028-281200-  
NORTHWEST WISCONSIN  
 
CITY SKY/WX TMP DP RH WIND PRES REMARKS
 
SUPERIOR ARPT CLOUDY 28 22 80 S3 29.82S  
ASHLAND MOCLDY 24 20 84 CALM 29.85S  
HAYWARD MOCLDY 28 20 71 SE6 29.82S WCI 22  
SIREN MOCLDY 26 21 83 CALM 29.80S  
CUMBERLAND MOCLDY 28 28 100 SE6 29.80F WCI 22  
RICE LAKE MOCLDY 24 24 100 SE5 29.83S WCI 19  
CHETEK MOCLDY 25 24 96 SE3 29.84S  
LADYSMITH MOCLDY 24 24 100 SE5 29.85S WCI 18  
EAU CLAIRE MOCLDY 18 15 88 CALM 29.83F  
MENOMONIE MOCLDY 22 22 100 CALM 29.84S  
NEW RICHMOND MOCLDY 25 25 100 SE6 29.80F WCI 18  
OSCEOLA MOCLDY 27 27 100 SE3 29.82F  

 
 
WIZ003>005-009-010-017-018-281200-  
NORTH CENTRAL WISCONSIN  
 
CITY SKY/WX TMP DP RH WIND PRES REMARKS
 
MANITOWISH WTR PTCLDY 22 19 89 CALM 29.82S  
ARBOR VITAE MOCLDY 21 19 92 CALM 29.82S  
WOODRUFF MOCLDY 21 19 92 CALM 29.82S  
RHINELANDER PTCLDY 22 17 81 CALM 29.83S  
EAGLE RIVER PTCLDY 24 19 79 S3 29.82S  
LAND O LAKES PTCLDY 25 20 82 CALM 29.83S  
PHILLIPS MOCLDY 17 17 98 CALM 29.81F  
TOMAHAWK PTCLDY 16 13 90 CALM 29.84S  
MEDFORD MOCLDY 21 20 93 CALM 29.83S  
MERRILL PTCLDY 16 14 93 CALM 29.85S  

 
 
WIZ029-030-035-036-043>047-281200-  
CENTRAL WISCONSIN  
 
CITY SKY/WX TMP DP RH WIND PRES REMARKS
 
WAUSAU PTCLDY 20 16 84 CALM 29.85R  
MOSINEE PTCLDY 23 19 86 CALM 29.87R  
MARSHFIELD PTCLDY 20 17 88 CALM 29.85R  
STEVENS POINT CLEAR 19 15 85 CALM 29.87S  
WAUPACA CLEAR 22 19 89 CALM 29.89S  
WAUTOMA CLEAR 15 12 88 CALM 29.89S  
WISC RAPIDS PTCLDY 18 14 84 CALM 29.87S  
CAMP DOUGLAS CLEAR 13 10 86 SE3 29.84F  

 
 
WIZ011>013-019>022-031-037>040-048>050-281200-  
NORTHEAST WISCONSIN  
 
CITY SKY/WX TMP DP RH WIND PRES REMARKS
 
ANTIGO CLEAR 22 21 96 CALM 29.85S  
SHAWANO CLEAR 21 20 96 CALM 29.89R  
OCONTO PTCLDY 18 18 100 CALM 29.89S  
STURGEON BAY CLEAR 28 24 85 CALM 29.90R  
GREEN BAY CLEAR 24 21 88 CALM 29.90R  
MANITOWOC CLEAR 21 19 92 W3 29.90R  
APPLETON CLEAR 25 19 80 CALM 29.87R  
CLINTONVILLE PTCLDY 19 16 89 CALM 29.90S  
OSHKOSH CLEAR 21 17 84 CALM 29.89R  

 
 
WIZ032>034-041-042-053>061-281200-  
SOUTHWEST WISCONSIN  
 
CITY SKY/WX TMP DP RH WIND PRES REMARKS
 
LA CROSSE PTCLDY 23 21 92 SE6 29.86S WCI 16  
SPARTA NOT AVBL  
VIROQUA PTCLDY 26 26 100 SE8 29.83S WCI 17  
BOSCOBEL CLEAR 16 12 84 NE3 29.88S  
PRAIRIE DU CHI CLEAR 21 19 91 CALM 29.86F  
PLATTEVILLE CLEAR 25 22 88 E7 29.86F WCI 17  

 
 
WIZ056-057-062-063-064-067-068-281200-  
SOUTH CENTRAL WISCONSIN  
 
CITY SKY/WX TMP DP RH WIND PRES REMARKS
 
REEDSBURG CLEAR 19 19 100 CALM 29.87S  
BARABOO/DELLS CLEAR 17 17 98 CALM 29.87S  
LONE ROCK CLEAR 19 13 77 E3 29.88F HAZE  
MINERAL POINT NOT AVBL  
MADISON CLEAR 21 17 84 CALM 29.87S  
MIDDLETON CLEAR 22 21 96 CALM 29.88S  
WATERTOWN CLEAR 18 17 96 CALM 29.89R  
MONROE CLEAR 30 24 78 SE6 29.86F WCI 24  
JANESVILLE FOG 23 23 100 CALM 29.90R VSB 1/4  

 
 
WIZ051-052-058>065-066-070>072-281200-  
SOUTHEAST WISCONSIN  
 
CITY SKY/WX TMP DP RH WIND PRES REMARKS
 
MILWAUKEE CLEAR 30 25 81 CALM 29.89R  
WAUKESHA CLEAR 21 21 100 CALM 29.90S  
MILWAUKEE/TIMM CLEAR 23 19 86 CALM 29.91R  
RACINE CLEAR 27 23 85 W5 29.91R WCI 22  
KENOSHA CLEAR 25 22 88 W3 29.90R FOG  
FOND DU LAC CLEAR 19 16 88 CALM 29.89R  
SHEBOYGAN CLEAR 23 20 88 CALM 29.88S  
WEST BEND CLEAR 21 19 93 CALM 29.90R  
JUNEAU CLEAR 22 22 99 CALM 29.90R  

 
 
LSZ147-162-281200-  
LAKE SUPERIOR  
 
STATION/POSITION TIME TEMP WIND PRES WAVE
 
AIR SEA DIR/SP/G HT/PER  
(UTC) (F) (DEG/KT/KT) (MB) (FT/S)  
DEVILS ISLAND 1100 35 180/ 8/ 11 1011.4R  
PORT WING 1040 31 130/ 3/ 6 1010.2S  
SAXON HARBOR 1040 28 170/ 2/ 3 1010.5S  

 
 
LMZ867-665-643>646-281200-  
LAKE MICHIGAN  
 
STATION/POSITION TIME TEMP WIND PRES WAVE
 
AIR SEA DIR/SP/G HT/PER  
(UTC) (F) (DEG/KT/KT) (MB) (FT/S)  
CHAMBERS ISLAND 1040 36 270/ 5/ 6 N/A  
N MID LAKE BUOY 1100 37 44 310/ 8/ 12 1011.8  
NORTHPORT PIER 1000 37 300/ 9/ 11 N/A  
KEWAUNEE LAKESHO 1036 27 290/ 3/ 5 1011.3R  
SHEBOYGAN LAKESH 1100 31 320/ 3/ 4 1012.9R  
PORT WASHINGTON 1030 28 280/ 3/ 5 1013.5R  
MILWAUKEE LAKESH 1100 30 260/ 4/ 5 N/A  
S MID LAKE BUOY 1100 40 360/ 4/ 8 1012.8  
KENOSHA LAKESH 1100 31 270/ 6/ 7 1012.9  

 
 
TC - TEMPERATURE IN CELSIUS  
VSB - VISIBILITY IN STATUTE MILES  
WCI - WIND CHILL INDEX  
HX - HEAT INDEX  
 
 
 
CLICK HERE TO GO TO PREVIOUS BULLETINS.

The Nexlab WI Page Main Text Page